Regional Weather Roundup
Issued by NWS State College, PA

Home | Current Version | Previous Version | Text Only | Print | Product List | Glossary Off
Versions: 1 2 3 4 5 6 7 8 9 10 11 12 13 14 15 16 17 18 19 20 21 22 23 24 25 26 27 28 29 30 31 32 33 34 35 36 37 38 39 40 41 42 43 44 45 46 47 48 49 50

000
ASUS41 KCTP 271510
RWRCTP

REGIONAL WEATHER ROUNDUP
NATIONAL WEATHER SERVICE STATE COLLEGE PA
1100 AM EDT MON MAR 27 2017

Note: "fair" indicates few or no clouds below 12,000 feet with no
significant weather and/or obstructions to visibility.

* = STATION THAT DOES NOT REPORT PRECIPITATION /E.G. RAIN...SNOW...ETC/
    THUNDER OR FOG.

PAZ002>004-007>009-013>016-020>023-029>032-271600-
WESTERN PENNSYLVANIA

CITY           SKY/WX    TMP DP  RH WIND       PRES   REMARKS
ERIE           CLOUDY    55  51  86 W12G22    29.95R
MEADVILLE      CLOUDY    55  49  80 SW12      29.96R
FRANKLIN*      CLOUDY    55  48  76 W13G18    29.98R
NEW CASTLE     CLOUDY    57  50  77 SW9G17    29.99S
BEAVER COUNTY  CLOUDY    59  48  67 SW9       30.00R
BUTLER*        PTSUNNY   57  48  72 SW13G18   30.00R
PITTSBURGH INT PTSUNNY   58  50  75 W9        30.00R
PITTSBURGH     MOSUNNY   59  48  67 W9G20     29.99R
INDIANA*       CLOUDY    57  54  88 W9G16     30.02R
LATROBE        PTSUNNY   63  55  77 SW12G21   30.00S
WASHINGTON CO* CLOUDY    61  52  72 W12       30.03R
$$

PAZ004>006-010>012-017>019-024>028-033>037-041-042-045-046-049>053-271600-
CENTRAL PENNSYLVANIA

CITY           SKY/WX    TMP DP  RH WIND       PRES   REMARKS
BRADFORD       CLOUDY    49  49 100 SW7       29.96R FOG
DUBOIS         CLOUDY    54  49  83 SW15      29.97R
CLEARFIELD       N/A    N/A N/A N/A MISG      30.00S
JOHNSTOWN      PTSUNNY   55  52  89 SW8       29.99S
ALTOONA        CLOUDY    53  49  86 SW7       30.02S
STATE COLLEGE  CLOUDY    48  45  87 SW9       30.02S
WILLIAMSPORT   CLOUDY    44  41  89 E7        30.05S
SELINSGROVE    CLOUDY    45  43  93 VRB5      30.06F
FT INDIANTOWN  CLOUDY    43  43 100 NE3       30.06F FOG
CAPITAL CITY   FOG       45  42  89 SE3       30.07F VSB 1
HARRISBURG     FOG       44  44 100 SE6       30.06F VSB 3/4
YORK           CLOUDY    46  46 100 CALM      30.06S FOG
$$

PAZ038>040-043-044-047-048-054-055-060>062-067>071-271600-
EASTERN PENNSYLVANIA

CITY           SKY/WX    TMP DP  RH WIND       PRES   REMARKS
SCRANTON       CLOUDY    45  43  93 W3        30.03S
MOUNT POCONO   FOG       41  41 100 SW6       30.01F VSB 1/2
ALLENTOWN      LGT RAIN  42  39  89 E5        30.07F FOG
QUAKERTOWN*    CLOUDY    41  41 100 CALM      30.08F
READING        CLOUDY    44  44 100 CALM      30.07F FOG
LANCASTER      CLOUDY    46  46 100 CALM      30.07F FOG
COATESVILLE    FOG       46  46 100 CALM      30.08F VSB 1/4
POTTSTOWN      CLOUDY    43  42  97 CALM      30.09F FOG
BLUE BELL      CLOUDY    43  43 100 CALM      30.07F
DOYLESTOWN     CLOUDY    42  42 100 CALM      30.07F
WILLOW GROVE   NOT AVBL
NORTH PHILA    CLOUDY    47  45  93 CALM      30.09F FOG
PHILADELPHIA   CLOUDY    48  46  93 CALM      30.09F FOG
$$




USA.gov is the U.S. government's official web portal to all federal, state and local government web resources and services.